Year,Month,Day,Hour,Minute,Value (Times are PST for temperature in C)
2019,04,20,00,00,7.90
2019,04,20,00,01,7.90
2019,04,20,00,02,8.00
2019,04,20,00,03,8.00
2019,04,20,00,04,8.00
2019,04,20,00,05,8.00
2019,04,20,00,06,8.00
2019,04,20,00,07,7.90
2019,04,20,00,08,7.90
2019,04,20,00,09,7.90
2019,04,20,00,10,7.90
2019,04,20,00,11,7.80
2019,04,20,00,12,7.80
2019,04,20,00,13,7.80
2019,04,20,00,14,7.80
2019,04,20,00,15,7.80
2019,04,20,00,16,7.80
2019,04,20,00,17,7.80
2019,04,20,00,18,7.80
2019,04,20,00,19,7.80
2019,04,20,00,20,7.80
2019,04,20,00,21,7.80
2019,04,20,00,22,7.80
2019,04,20,00,23,7.80
2019,04,20,00,24,7.80
2019,04,20,00,25,7.70
2019,04,20,00,26,7.70
2019,04,20,00,27,7.70
2019,04,20,00,28,7.70
2019,04,20,00,29,7.70
2019,04,20,00,30,7.70
2019,04,20,00,31,7.70
2019,04,20,00,32,7.70
2019,04,20,00,33,7.70
2019,04,20,00,34,7.70
2019,04,20,00,35,7.70
2019,04,20,00,36,7.70
2019,04,20,00,37,7.70
2019,04,20,00,38,7.70
2019,04,20,00,39,7.70
2019,04,20,00,40,7.70
2019,04,20,00,41,7.70
2019,04,20,00,42,7.70
2019,04,20,00,43,7.70
2019,04,20,00,44,7.70
2019,04,20,00,45,7.70
2019,04,20,00,46,7.70
2019,04,20,00,47,7.70
2019,04,20,00,48,7.70
2019,04,20,00,49,7.70
2019,04,20,00,50,7.70
2019,04,20,00,51,7.70
2019,04,20,00,52,7.70
2019,04,20,00,53,7.70
2019,04,20,00,54,7.60
2019,04,20,00,55,7.60
2019,04,20,00,56,7.60
2019,04,20,00,57,7.60
2019,04,20,00,58,7.60
2019,04,20,00,59,7.60
2019,04,20,01,00,7.60
2019,04,20,01,01,7.60
2019,04,20,01,02,7.50
2019,04,20,01,03,7.50
2019,04,20,01,04,7.50
2019,04,20,01,05,7.40
2019,04,20,01,06,7.40
2019,04,20,01,07,7.40
2019,04,20,01,08,7.40
2019,04,20,01,09,7.40
2019,04,20,01,10,7.40
2019,04,20,01,11,7.40
2019,04,20,01,12,7.40
2019,04,20,01,13,7.30
2019,04,20,01,14,7.30
2019,04,20,01,15,7.30
2019,04,20,01,16,7.30
2019,04,20,01,17,7.30
2019,04,20,01,18,7.30
2019,04,20,01,19,7.30
2019,04,20,01,20,7.30
2019,04,20,01,21,7.30
2019,04,20,01,22,7.30
2019,04,20,01,23,7.30
2019,04,20,01,24,7.30
2019,04,20,01,25,7.30
2019,04,20,01,26,7.30
2019,04,20,01,27,7.30
2019,04,20,01,28,7.30
2019,04,20,01,29,7.30
2019,04,20,01,30,7.30
2019,04,20,01,31,7.40
2019,04,20,01,32,7.40
2019,04,20,01,33,7.40
2019,04,20,01,34,7.40
2019,04,20,01,35,7.40
2019,04,20,01,36,7.40
2019,04,20,01,37,7.40
2019,04,20,01,38,7.40
2019,04,20,01,39,7.40
2019,04,20,01,40,7.40
2019,04,20,01,41,7.40
2019,04,20,01,42,7.40
2019,04,20,01,43,7.40
2019,04,20,01,44,7.40
2019,04,20,01,45,7.40
2019,04,20,01,46,7.40
2019,04,20,01,47,7.40
2019,04,20,01,48,7.40
2019,04,20,01,49,7.40
2019,04,20,01,50,7.40
2019,04,20,01,51,7.40
2019,04,20,01,52,7.40
2019,04,20,01,53,7.40
2019,04,20,01,54,7.30
2019,04,20,01,55,7.30
2019,04,20,01,56,7.30
2019,04,20,01,57,7.30
2019,04,20,01,58,7.30
2019,04,20,01,59,7.30
2019,04,20,02,00,7.30
2019,04,20,02,01,7.30
2019,04,20,02,02,7.30
2019,04,20,02,03,7.30
2019,04,20,02,04,7.30
2019,04,20,02,05,7.30
2019,04,20,02,06,7.30
2019,04,20,02,07,7.30
2019,04,20,02,08,7.30
2019,04,20,02,09,7.30
2019,04,20,02,10,7.30
2019,04,20,02,11,7.30
2019,04,20,02,12,7.30
2019,04,20,02,13,7.20
2019,04,20,02,14,7.20
2019,04,20,02,15,7.20
2019,04,20,02,16,7.20
2019,04,20,02,17,7.20
2019,04,20,02,18,7.20
2019,04,20,02,19,7.10
2019,04,20,02,20,7.10
2019,04,20,02,21,7.10
2019,04,20,02,22,7.10
2019,04,20,02,23,7.00
2019,04,20,02,24,7.00
2019,04,20,02,25,7.00
2019,04,20,02,26,7.00
2019,04,20,02,27,7.00
2019,04,20,02,28,6.90
2019,04,20,02,29,7.00
2019,04,20,02,30,6.90
2019,04,20,02,31,6.90
2019,04,20,02,32,6.90
2019,04,20,02,33,6.90
2019,04,20,02,34,6.90
2019,04,20,02,35,6.90
2019,04,20,02,36,6.90
2019,04,20,02,37,6.90
2019,04,20,02,38,6.80
2019,04,20,02,39,6.80
2019,04,20,02,40,6.80
2019,04,20,02,41,6.80
2019,04,20,02,42,6.80
2019,04,20,02,43,6.80
2019,04,20,02,44,6.80
2019,04,20,02,45,6.80
2019,04,20,02,46,6.80
2019,04,20,02,47,6.80
2019,04,20,02,48,6.80
2019,04,20,02,49,6.80
2019,04,20,02,50,6.80
2019,04,20,02,51,6.80
2019,04,20,02,52,6.80
2019,04,20,02,53,6.80
2019,04,20,02,54,6.80
2019,04,20,02,55,6.80
2019,04,20,02,56,6.80
2019,04,20,02,57,6.80
2019,04,20,02,58,6.70
2019,04,20,02,59,6.70
2019,04,20,03,00,6.70
2019,04,20,03,01,6.70
2019,04,20,03,02,6.70
2019,04,20,03,03,6.70
2019,04,20,03,04,6.70
2019,04,20,03,05,6.70
2019,04,20,03,06,6.70
2019,04,20,03,07,6.70
2019,04,20,03,08,6.70
2019,04,20,03,09,6.70
2019,04,20,03,10,6.70
2019,04,20,03,11,6.60
2019,04,20,03,12,6.60
2019,04,20,03,13,6.60
2019,04,20,03,14,6.60
2019,04,20,03,15,6.60
2019,04,20,03,16,6.60
2019,04,20,03,17,6.60
2019,04,20,03,18,6.60
2019,04,20,03,19,6.60
2019,04,20,03,20,6.60
2019,04,20,03,21,6.60
2019,04,20,03,22,6.60
2019,04,20,03,23,6.60
2019,04,20,03,24,6.60
2019,04,20,03,25,6.60
2019,04,20,03,26,6.60
2019,04,20,03,27,6.60
2019,04,20,03,28,6.60
2019,04,20,03,29,6.60
2019,04,20,03,30,6.60
2019,04,20,03,31,6.60
2019,04,20,03,32,6.60
2019,04,20,03,33,6.60
2019,04,20,03,34,6.60
2019,04,20,03,35,6.60
2019,04,20,03,36,6.60
2019,04,20,03,37,6.60
2019,04,20,03,38,6.60
2019,04,20,03,39,6.60
2019,04,20,03,40,6.60
2019,04,20,03,41,6.70
2019,04,20,03,42,6.60
2019,04,20,03,43,6.70
2019,04,20,03,44,6.70
2019,04,20,03,45,6.70
2019,04,20,03,46,6.70
2019,04,20,03,47,6.70
2019,04,20,03,48,6.60
2019,04,20,03,49,6.60
2019,04,20,03,50,6.60
2019,04,20,03,51,6.60
2019,04,20,03,52,6.60
2019,04,20,03,53,6.60
2019,04,20,03,54,6.60
2019,04,20,03,55,6.60
2019,04,20,03,56,6.60
2019,04,20,03,57,6.60
2019,04,20,03,58,6.50
2019,04,20,03,59,6.50
2019,04,20,04,00,6.50
2019,04,20,04,01,6.50
2019,04,20,04,02,6.50
2019,04,20,04,03,6.50
2019,04,20,04,04,6.40
2019,04,20,04,05,6.40
2019,04,20,04,06,6.40
2019,04,20,04,07,6.40
2019,04,20,04,08,6.40
2019,04,20,04,09,6.40
2019,04,20,04,10,6.40
2019,04,20,04,11,6.40
2019,04,20,04,12,6.40
2019,04,20,04,13,6.40
2019,04,20,04,14,6.40
2019,04,20,04,15,6.40
2019,04,20,04,16,6.40
2019,04,20,04,17,6.40
2019,04,20,04,18,6.40
2019,04,20,04,19,6.40
2019,04,20,04,20,6.40
2019,04,20,04,21,6.40
2019,04,20,04,22,6.40
2019,04,20,04,23,6.40
2019,04,20,04,24,6.40
2019,04,20,04,25,6.40
2019,04,20,04,26,6.40
2019,04,20,04,27,6.40
2019,04,20,04,28,6.40
2019,04,20,04,29,6.40
2019,04,20,04,30,6.40
2019,04,20,04,31,6.40
2019,04,20,04,32,6.40
2019,04,20,04,33,6.40
2019,04,20,04,34,6.40
2019,04,20,04,35,6.40
2019,04,20,04,36,6.40
2019,04,20,04,37,6.40
2019,04,20,04,38,6.40
2019,04,20,04,39,6.40
2019,04,20,04,40,6.40
2019,04,20,04,41,6.40
2019,04,20,04,42,6.40
2019,04,20,04,43,6.40
2019,04,20,04,44,6.40
2019,04,20,04,45,6.40
2019,04,20,04,46,6.40
2019,04,20,04,47,6.40
2019,04,20,04,48,6.40
2019,04,20,04,49,6.40
2019,04,20,04,50,6.40
2019,04,20,04,51,6.40
2019,04,20,04,52,6.40
2019,04,20,04,53,6.30
2019,04,20,04,54,6.30
2019,04,20,04,55,6.30
2019,04,20,04,56,6.30
2019,04,20,04,57,6.30
2019,04,20,04,58,6.30
2019,04,20,04,59,6.30
2019,04,20,05,00,6.30
2019,04,20,05,01,6.30
2019,04,20,05,02,6.30
2019,04,20,05,03,6.30
2019,04,20,05,04,6.30
2019,04,20,05,05,6.30
2019,04,20,05,06,6.30
2019,04,20,05,07,6.30
2019,04,20,05,08,6.30
2019,04,20,05,09,6.30
2019,04,20,05,10,6.30
2019,04,20,05,11,6.30
2019,04,20,05,12,6.30
2019,04,20,05,13,6.30
2019,04,20,05,14,6.30
2019,04,20,05,15,6.30
2019,04,20,05,16,6.30
2019,04,20,05,17,6.30
2019,04,20,05,18,6.30
2019,04,20,05,19,6.30
2019,04,20,05,20,6.30
2019,04,20,05,21,6.30
2019,04,20,05,22,6.30
2019,04,20,05,23,6.30
2019,04,20,05,24,6.30
2019,04,20,05,25,6.30
2019,04,20,05,26,6.30
2019,04,20,05,27,6.30
2019,04,20,05,28,6.30
2019,04,20,05,29,6.30
2019,04,20,05,30,6.30
2019,04,20,05,31,6.30
2019,04,20,05,32,6.30
2019,04,20,05,33,6.30
2019,04,20,05,34,6.20
2019,04,20,05,35,6.20
2019,04,20,05,36,6.20
2019,04,20,05,37,6.20
2019,04,20,05,38,6.20
2019,04,20,05,39,6.20
2019,04,20,05,40,6.20
2019,04,20,05,41,6.20
2019,04,20,05,42,6.20
2019,04,20,05,43,6.20
2019,04,20,05,44,6.20
2019,04,20,05,45,6.20
2019,04,20,05,46,6.20
2019,04,20,05,47,6.20
2019,04,20,05,48,6.20
2019,04,20,05,49,6.20
2019,04,20,05,50,6.20
2019,04,20,05,51,6.10
2019,04,20,05,52,6.10
2019,04,20,05,53,6.10
2019,04,20,05,54,6.10
2019,04,20,05,55,6.10
2019,04,20,05,56,6.10
2019,04,20,05,57,6.10
2019,04,20,05,58,6.10
2019,04,20,05,59,6.10
2019,04,20,06,00,6.10
2019,04,20,06,01,6.10
2019,04,20,06,02,6.10
2019,04,20,06,03,6.10
2019,04,20,06,04,6.10
2019,04,20,06,05,6.10
2019,04,20,06,06,6.10
2019,04,20,06,07,6.10
2019,04,20,06,08,6.10
2019,04,20,06,09,6.00
2019,04,20,06,10,6.00
2019,04,20,06,11,6.00
2019,04,20,06,12,6.00
2019,04,20,06,13,6.00
2019,04,20,06,14,6.00
2019,04,20,06,15,6.00
2019,04,20,06,16,6.00
2019,04,20,06,17,5.90
2019,04,20,06,18,5.90
2019,04,20,06,19,5.90
2019,04,20,06,20,5.90
2019,04,20,06,21,5.90
2019,04,20,06,22,5.90
2019,04,20,06,23,5.90
2019,04,20,06,24,5.90
2019,04,20,06,25,5.90
2019,04,20,06,26,5.90
2019,04,20,06,27,5.90
2019,04,20,06,28,5.90
2019,04,20,06,29,5.90
2019,04,20,06,30,5.80
2019,04,20,06,31,5.80
2019,04,20,06,32,5.80
2019,04,20,06,33,5.80
2019,04,20,06,34,5.80
2019,04,20,06,35,5.80
2019,04,20,06,36,5.80
2019,04,20,06,37,5.80
2019,04,20,06,38,5.80
2019,04,20,06,39,5.80
2019,04,20,06,40,5.80
2019,04,20,06,41,5.80
2019,04,20,06,42,5.80
2019,04,20,06,43,5.80
2019,04,20,06,44,5.80
2019,04,20,06,45,5.80
2019,04,20,06,46,5.90
2019,04,20,06,47,5.90
2019,04,20,06,48,5.90
2019,04,20,06,49,5.90
2019,04,20,06,50,5.90
2019,04,20,06,51,5.90
2019,04,20,06,52,5.90
2019,04,20,06,53,6.00
2019,04,20,06,54,6.00
2019,04,20,06,55,6.00
2019,04,20,06,56,6.00
2019,04,20,06,57,6.00
2019,04,20,06,58,6.00
2019,04,20,06,59,6.00
2019,04,20,07,00,6.00
2019,04,20,07,01,6.10
2019,04,20,07,02,6.10
2019,04,20,07,03,6.10
2019,04,20,07,04,6.10
2019,04,20,07,05,6.10
2019,04,20,07,06,6.10
2019,04,20,07,07,6.10
2019,04,20,07,08,6.10
2019,04,20,07,09,6.20
2019,04,20,07,10,6.20
2019,04,20,07,11,6.20
2019,04,20,07,12,6.20
2019,04,20,07,13,6.20
2019,04,20,07,14,6.30
2019,04,20,07,15,6.30
2019,04,20,07,16,6.30
2019,04,20,07,17,6.30
2019,04,20,07,18,6.30
2019,04,20,07,19,6.40
2019,04,20,07,20,6.40
2019,04,20,07,21,6.40
2019,04,20,07,22,6.40
2019,04,20,07,23,6.50
2019,04,20,07,24,6.50
2019,04,20,07,25,6.60
2019,04,20,07,26,6.60
2019,04,20,07,27,6.60
2019,04,20,07,28,6.60
2019,04,20,07,29,6.70
2019,04,20,07,30,6.70
2019,04,20,07,31,6.70
2019,04,20,07,32,6.70
2019,04,20,07,33,6.80
2019,04,20,07,34,6.80
2019,04,20,07,35,6.80
2019,04,20,07,36,6.80
2019,04,20,07,37,6.90
2019,04,20,07,38,6.90
2019,04,20,07,39,6.90
2019,04,20,07,40,6.90
2019,04,20,07,41,6.90
2019,04,20,07,42,7.00
2019,04,20,07,43,7.00
2019,04,20,07,44,7.00
2019,04,20,07,45,7.10
2019,04,20,07,46,7.10
2019,04,20,07,47,7.10
2019,04,20,07,48,7.10
2019,04,20,07,49,7.20
2019,04,20,07,50,7.20
2019,04,20,07,51,7.20
2019,04,20,07,52,7.20
2019,04,20,07,53,7.20
2019,04,20,07,54,7.30
2019,04,20,07,55,7.30
2019,04,20,07,56,7.30
2019,04,20,07,57,7.30
2019,04,20,07,58,7.30
2019,04,20,07,59,7.40
2019,04,20,08,00,7.40
2019,04,20,08,01,7.40
2019,04,20,08,02,7.50
2019,04,20,08,03,7.50
2019,04,20,08,04,7.50
2019,04,20,08,05,7.60
2019,04,20,08,06,7.60
2019,04,20,08,07,7.60
2019,04,20,08,08,7.70
2019,04,20,08,09,7.70
2019,04,20,08,10,7.70
2019,04,20,08,11,7.70
2019,04,20,08,12,7.80
2019,04,20,08,13,7.80
2019,04,20,08,14,7.80
2019,04,20,08,15,7.90
2019,04,20,08,16,7.90
2019,04,20,08,17,7.90
2019,04,20,08,18,7.90
2019,04,20,08,19,8.00
2019,04,20,08,20,8.00
2019,04,20,08,21,8.00
2019,04,20,08,22,8.00
2019,04,20,08,23,8.10
2019,04,20,08,24,8.10
2019,04,20,08,25,8.10
2019,04,20,08,26,8.10
2019,04,20,08,27,8.20
2019,04,20,08,28,8.20
2019,04,20,08,29,8.20
2019,04,20,08,30,8.20
2019,04,20,08,31,8.20
2019,04,20,08,32,8.30
2019,04,20,08,33,8.30
2019,04,20,08,34,8.30
2019,04,20,08,35,8.40
2019,04,20,08,36,8.40
2019,04,20,08,37,8.40
2019,04,20,08,38,8.40
2019,04,20,08,39,8.50
2019,04,20,08,40,8.50
2019,04,20,08,41,8.50
2019,04,20,08,42,8.60
2019,04,20,08,43,8.60
2019,04,20,08,44,8.60
2019,04,20,08,45,8.60
2019,04,20,08,46,8.60
2019,04,20,08,47,8.60
2019,04,20,08,48,8.60
2019,04,20,08,49,8.70
2019,04,20,08,50,8.70
2019,04,20,08,51,8.70
2019,04,20,08,52,8.70
2019,04,20,08,53,8.80
2019,04,20,08,54,8.80
2019,04,20,08,55,8.80
2019,04,20,08,56,8.80
2019,04,20,08,57,8.90
2019,04,20,08,58,8.90
2019,04,20,08,59,9.00
2019,04,20,09,00,9.10
2019,04,20,09,01,9.10
2019,04,20,09,02,9.20
2019,04,20,09,03,9.20
2019,04,20,09,04,9.20
2019,04,20,09,05,9.20
2019,04,20,09,06,9.20
2019,04,20,09,07,9.20
2019,04,20,09,08,9.20
2019,04,20,09,09,9.20
2019,04,20,09,10,9.20
2019,04,20,09,11,9.20
2019,04,20,09,12,9.20
2019,04,20,09,13,9.20
2019,04,20,09,14,9.30
2019,04,20,09,15,9.40
2019,04,20,09,16,9.40
2019,04,20,09,17,9.40
2019,04,20,09,18,9.50
2019,04,20,09,19,9.50
2019,04,20,09,20,9.60
2019,04,20,09,21,9.60
2019,04,20,09,22,9.60
2019,04,20,09,23,9.60
2019,04,20,09,24,9.60
2019,04,20,09,25,9.60
2019,04,20,09,26,9.60
2019,04,20,09,27,9.70
2019,04,20,09,28,9.70
2019,04,20,09,29,9.70
2019,04,20,09,30,9.70
2019,04,20,09,31,9.70
2019,04,20,09,32,9.70
2019,04,20,09,33,9.70
2019,04,20,09,34,9.80
2019,04,20,09,35,9.80
2019,04,20,09,36,9.80
2019,04,20,09,37,9.80
2019,04,20,09,38,9.80
2019,04,20,09,39,9.80
2019,04,20,09,40,9.90
2019,04,20,09,41,9.90
2019,04,20,09,42,10.00
2019,04,20,09,43,10.00
2019,04,20,09,44,10.10
2019,04,20,09,45,10.10
2019,04,20,09,46,10.10
2019,04,20,09,47,10.10
2019,04,20,09,48,10.10
2019,04,20,09,49,10.10
2019,04,20,09,50,10.10
2019,04,20,09,51,10.10
2019,04,20,09,52,10.10
2019,04,20,09,53,10.20
2019,04,20,09,54,10.20
2019,04,20,09,55,10.20
2019,04,20,09,56,10.20
2019,04,20,09,57,10.30
2019,04,20,09,58,10.30
2019,04,20,09,59,10.30
2019,04,20,10,00,10.30
2019,04,20,10,01,10.30
2019,04,20,10,02,10.30
2019,04,20,10,03,10.30
2019,04,20,10,04,10.40
2019,04,20,10,05,10.40
2019,04,20,10,06,10.40
2019,04,20,10,07,10.40
2019,04,20,10,08,10.40
2019,04,20,10,09,10.50
2019,04,20,10,10,10.50
2019,04,20,10,11,10.50
2019,04,20,10,12,10.60
2019,04,20,10,13,10.60
2019,04,20,10,14,10.60
2019,04,20,10,15,10.70
2019,04,20,10,16,10.70
2019,04,20,10,17,10.80
2019,04,20,10,18,10.90
2019,04,20,10,19,10.90
2019,04,20,10,20,10.90
2019,04,20,10,21,10.90
2019,04,20,10,22,11.00
2019,04,20,10,23,11.00
2019,04,20,10,24,11.10
2019,04,20,10,25,11.20
2019,04,20,10,26,11.20
2019,04,20,10,27,11.20
2019,04,20,10,28,11.20
2019,04,20,10,29,11.20
2019,04,20,10,30,11.20
2019,04,20,10,31,11.30
2019,04,20,10,32,11.30
2019,04,20,10,33,11.40
2019,04,20,10,34,11.50
2019,04,20,10,35,11.50
2019,04,20,10,36,11.50
2019,04,20,10,37,11.50
2019,04,20,10,38,11.50
2019,04,20,10,39,11.50
2019,04,20,10,40,11.50
2019,04,20,10,41,11.40
2019,04,20,10,42,11.50
2019,04,20,10,43,11.50
2019,04,20,10,44,11.60
2019,04,20,10,45,11.60
2019,04,20,10,46,11.60
2019,04,20,10,47,11.70
2019,04,20,10,48,11.70
2019,04,20,10,49,11.80
2019,04,20,10,50,11.90
2019,04,20,10,51,11.90
2019,04,20,10,52,12.00
2019,04,20,10,53,12.00
2019,04,20,10,54,12.10
2019,04,20,10,55,12.10
2019,04,20,10,56,12.20
2019,04,20,10,57,12.20
2019,04,20,10,58,12.20
2019,04,20,10,59,12.20
2019,04,20,11,00,12.20
2019,04,20,11,01,12.20
2019,04,20,11,02,12.20
2019,04,20,11,03,12.20
2019,04,20,11,04,12.20
2019,04,20,11,05,12.20
2019,04,20,11,06,12.20
2019,04,20,11,07,12.20
2019,04,20,11,08,12.30
2019,04,20,11,09,12.30
2019,04,20,11,10,12.30
2019,04,20,11,11,12.30
2019,04,20,11,12,12.40
2019,04,20,11,13,12.40
2019,04,20,11,14,12.40
2019,04,20,11,15,12.50
2019,04,20,11,16,12.60
2019,04,20,11,17,12.60
2019,04,20,11,18,12.70
2019,04,20,11,19,12.70
2019,04,20,11,20,12.80
2019,04,20,11,21,12.80
2019,04,20,11,22,12.80
2019,04,20,11,23,12.80
2019,04,20,11,24,12.80
2019,04,20,11,25,12.80
2019,04,20,11,26,12.80
2019,04,20,11,27,12.80
2019,04,20,11,28,12.80
2019,04,20,11,29,12.80
2019,04,20,11,30,12.80
2019,04,20,11,31,12.70
2019,04,20,11,32,12.70
2019,04,20,11,33,12.70
2019,04,20,11,34,12.80
2019,04,20,11,35,12.80
2019,04,20,11,36,12.90
2019,04,20,11,37,13.00
2019,04,20,11,38,13.10
2019,04,20,11,39,13.10
2019,04,20,11,40,13.20
2019,04,20,11,41,13.20
2019,04,20,11,42,13.20
2019,04,20,11,43,13.20
2019,04,20,11,44,13.20
2019,04,20,11,45,13.30
2019,04,20,11,46,13.30
2019,04,20,11,47,13.30
2019,04,20,11,48,13.30
2019,04,20,11,49,13.30
2019,04,20,11,50,13.40
2019,04,20,11,51,13.40
2019,04,20,11,52,13.40
2019,04,20,11,53,13.40
2019,04,20,11,54,13.40
2019,04,20,11,55,13.40
2019,04,20,11,56,13.40
2019,04,20,11,57,13.40
2019,04,20,11,58,13.40
2019,04,20,11,59,13.50
2019,04,20,12,00,13.50
2019,04,20,12,01,13.60
2019,04,20,12,02,13.70
2019,04,20,12,03,13.70
2019,04,20,12,04,13.80
2019,04,20,12,05,13.80
2019,04,20,12,06,13.90
2019,04,20,12,07,13.90
2019,04,20,12,08,13.90
2019,04,20,12,09,14.00
2019,04,20,12,10,14.00
2019,04,20,12,11,14.10
2019,04,20,12,12,14.10
2019,04,20,12,13,14.20
2019,04,20,12,14,14.20
2019,04,20,12,15,14.30
2019,04,20,12,16,14.30
2019,04,20,12,17,14.20
2019,04,20,12,18,14.20
2019,04,20,12,19,14.20
2019,04,20,12,20,14.20
2019,04,20,12,21,14.20
2019,04,20,12,22,14.20
2019,04,20,12,23,14.20
2019,04,20,12,24,14.30
2019,04,20,12,25,14.30
2019,04,20,12,26,14.40
2019,04,20,12,27,14.40
2019,04,20,12,28,14.40
2019,04,20,12,29,14.50
2019,04,20,12,30,14.50
2019,04,20,12,31,14.50
2019,04,20,12,32,14.40
2019,04,20,12,33,14.40
2019,04,20,12,34,14.40
2019,04,20,12,35,14.40
2019,04,20,12,36,14.40
2019,04,20,12,37,14.50
2019,04,20,12,38,14.60
2019,04,20,12,39,14.60
2019,04,20,12,40,14.60
2019,04,20,12,41,14.70
2019,04,20,12,42,14.70
2019,04,20,12,43,14.80
2019,04,20,12,44,14.80
2019,04,20,12,45,14.90
2019,04,20,12,46,15.00
2019,04,20,12,47,15.10
2019,04,20,12,48,15.10
2019,04,20,12,49,15.10
2019,04,20,12,50,15.10
2019,04,20,12,51,15.00
2019,04,20,12,52,14.90
2019,04,20,12,53,14.80
2019,04,20,12,54,14.80
2019,04,20,12,55,14.80
2019,04,20,12,56,14.90
2019,04,20,12,57,14.90
2019,04,20,12,58,14.90
2019,04,20,12,59,15.00
2019,04,20,13,00,14.90
2019,04,20,13,01,14.90
2019,04,20,13,02,14.90
2019,04,20,13,03,14.90
2019,04,20,13,04,14.90
2019,04,20,13,05,15.00
2019,04,20,13,06,15.00
2019,04,20,13,07,15.00
2019,04,20,13,08,15.10
2019,04,20,13,09,15.10
2019,04,20,13,10,15.10
2019,04,20,13,11,15.10
2019,04,20,13,12,15.10
2019,04,20,13,13,15.10
2019,04,20,13,14,15.10
2019,04,20,13,15,15.10
2019,04,20,13,16,15.10
2019,04,20,13,17,15.20
2019,04,20,13,18,15.20
2019,04,20,13,19,15.20
2019,04,20,13,20,15.20
2019,04,20,13,21,15.20
2019,04,20,13,22,15.20
2019,04,20,13,23,15.20
2019,04,20,13,24,15.20
2019,04,20,13,25,15.20
2019,04,20,13,26,15.20
2019,04,20,13,27,15.20
2019,04,20,13,28,15.20
2019,04,20,13,29,15.30
2019,04,20,13,30,15.30
2019,04,20,13,31,15.40
2019,04,20,13,32,15.50
2019,04,20,13,33,15.40
2019,04,20,13,34,15.40
2019,04,20,13,35,15.40
2019,04,20,13,36,15.30
2019,04,20,13,37,15.30
2019,04,20,13,38,15.40
2019,04,20,13,39,15.50
2019,04,20,13,40,15.50
2019,04,20,13,41,15.60
2019,04,20,13,42,15.60
2019,04,20,13,43,15.70
2019,04,20,13,44,15.80
2019,04,20,13,45,15.80
2019,04,20,13,46,15.80
2019,04,20,13,47,15.80
2019,04,20,13,48,15.80
2019,04,20,13,49,15.70
2019,04,20,13,50,15.70
2019,04,20,13,51,15.70
2019,04,20,13,52,15.70
2019,04,20,13,53,15.60
2019,04,20,13,54,15.60
2019,04,20,13,55,15.50
2019,04,20,13,56,15.50
2019,04,20,13,57,15.60
2019,04,20,13,58,15.60
2019,04,20,13,59,15.70
2019,04,20,14,00,15.70
2019,04,20,14,01,15.70
2019,04,20,14,02,15.70
2019,04,20,14,03,15.70
2019,04,20,14,04,15.70
2019,04,20,14,05,15.70
2019,04,20,14,06,15.70
2019,04,20,14,07,15.80
2019,04,20,14,08,15.80
2019,04,20,14,09,15.90
2019,04,20,14,10,15.90
2019,04,20,14,11,16.00
2019,04,20,14,12,16.00
2019,04,20,14,13,16.00
2019,04,20,14,14,16.10
2019,04,20,14,15,16.20
2019,04,20,14,16,16.20
2019,04,20,14,17,16.30
2019,04,20,14,18,16.30
2019,04,20,14,19,16.30
2019,04,20,14,20,16.20
2019,04,20,14,21,16.20
2019,04,20,14,22,16.30
2019,04,20,14,23,16.30
2019,04,20,14,24,16.30
2019,04,20,14,25,16.30
2019,04,20,14,26,16.30
2019,04,20,14,27,16.30
2019,04,20,14,28,16.40
2019,04,20,14,29,16.40
2019,04,20,14,30,16.40
2019,04,20,14,31,16.50
2019,04,20,14,32,16.60
2019,04,20,14,33,16.70
2019,04,20,14,34,16.80
2019,04,20,14,35,16.80
2019,04,20,14,36,16.70
2019,04,20,14,37,16.80
2019,04,20,14,38,16.80
2019,04,20,14,39,16.80
2019,04,20,14,40,16.70
2019,04,20,14,41,16.70
2019,04,20,14,42,16.70
2019,04,20,14,43,16.70
2019,04,20,14,44,16.80
2019,04,20,14,45,16.80
2019,04,20,14,46,16.90
2019,04,20,14,47,17.00
2019,04,20,14,48,17.00
2019,04,20,14,49,17.10
2019,04,20,14,50,17.10
2019,04,20,14,51,17.10
2019,04,20,14,52,17.00
2019,04,20,14,53,17.00
2019,04,20,14,54,17.00
2019,04,20,14,55,17.10
2019,04,20,14,56,17.10
2019,04,20,14,57,17.10
2019,04,20,14,58,17.10
2019,04,20,14,59,17.10
2019,04,20,15,00,17.20
2019,04,20,15,01,17.20
2019,04,20,15,02,17.20
2019,04,20,15,03,17.30
2019,04,20,15,04,17.50
2019,04,20,15,05,17.60
2019,04,20,15,06,17.60
2019,04,20,15,07,17.50
2019,04,20,15,08,17.50
2019,04,20,15,09,17.50
2019,04,20,15,10,17.60
2019,04,20,15,11,17.60
2019,04,20,15,12,17.60
2019,04,20,15,13,17.60
2019,04,20,15,14,17.60
2019,04,20,15,15,17.60
2019,04,20,15,16,17.60
2019,04,20,15,17,17.60
2019,04,20,15,18,17.60
2019,04,20,15,19,17.60
2019,04,20,15,20,17.70
2019,04,20,15,21,17.70
2019,04,20,15,22,17.80
2019,04,20,15,23,17.70
2019,04,20,15,24,17.70
2019,04,20,15,25,17.70
2019,04,20,15,26,17.70
2019,04,20,15,27,17.70
2019,04,20,15,28,17.70
2019,04,20,15,29,17.70
2019,04,20,15,30,17.70
2019,04,20,15,31,17.70
2019,04,20,15,32,17.80
2019,04,20,15,33,17.80
2019,04,20,15,34,17.80
2019,04,20,15,35,17.80
2019,04,20,15,36,17.80
2019,04,20,15,37,17.80
2019,04,20,15,38,17.80
2019,04,20,15,39,17.80
2019,04,20,15,40,17.80
2019,04,20,15,41,17.80
2019,04,20,15,42,17.90
2019,04,20,15,43,17.90
2019,04,20,15,44,17.80
2019,04,20,15,45,17.80
2019,04,20,15,46,17.90
2019,04,20,15,47,17.90
2019,04,20,15,48,17.90
2019,04,20,15,49,17.90
2019,04,20,15,50,17.90
2019,04,20,15,51,18.00
2019,04,20,15,52,18.00
2019,04,20,15,53,18.10
2019,04,20,15,54,18.10
2019,04,20,15,55,18.10
2019,04,20,15,56,18.10
2019,04,20,15,57,18.00
2019,04,20,15,58,18.00
2019,04,20,15,59,18.00
2019,04,20,16,00,18.00
2019,04,20,16,01,18.00
2019,04,20,16,02,18.00
2019,04,20,16,03,18.10
2019,04,20,16,04,18.10
2019,04,20,16,05,18.20
2019,04,20,16,06,18.20
2019,04,20,16,07,18.20
2019,04,20,16,08,18.20
2019,04,20,16,09,18.20
2019,04,20,16,10,18.20
2019,04,20,16,11,18.20
2019,04,20,16,12,18.20
2019,04,20,16,13,18.20
2019,04,20,16,14,18.10
2019,04,20,16,15,18.10
2019,04,20,16,16,18.00
2019,04,20,16,17,18.00
2019,04,20,16,18,18.00
2019,04,20,16,19,17.90
2019,04,20,16,20,17.90
2019,04,20,16,21,17.90
2019,04,20,16,22,17.90
2019,04,20,16,23,17.90
2019,04,20,16,24,18.00
2019,04,20,16,25,18.00
2019,04,20,16,26,18.10
2019,04,20,16,27,18.10
2019,04,20,16,28,18.10
2019,04,20,16,29,18.10
2019,04,20,16,30,18.10
2019,04,20,16,31,18.10
2019,04,20,16,32,18.20
2019,04,20,16,33,18.20
2019,04,20,16,34,18.20
2019,04,20,16,35,18.30
2019,04,20,16,36,18.30
2019,04,20,16,37,18.30
2019,04,20,16,38,18.30
2019,04,20,16,39,18.30
2019,04,20,16,40,18.30
2019,04,20,16,41,18.20
2019,04,20,16,42,18.20
2019,04,20,16,43,18.20
2019,04,20,16,44,18.30
2019,04,20,16,45,18.30
2019,04,20,16,46,18.30
2019,04,20,16,47,18.30
2019,04,20,16,48,18.30
2019,04,20,16,49,18.30
2019,04,20,16,50,18.40
2019,04,20,16,51,18.40
2019,04,20,16,52,18.40
2019,04,20,16,53,18.50
2019,04,20,16,54,18.50
2019,04,20,16,55,18.60
2019,04,20,16,56,18.70
2019,04,20,16,57,18.70
2019,04,20,16,58,18.80
2019,04,20,16,59,18.80
2019,04,20,17,00,18.90
2019,04,20,17,01,18.90
2019,04,20,17,02,18.90
2019,04,20,17,03,18.90
2019,04,20,17,04,18.90
2019,04,20,17,05,18.90
2019,04,20,17,06,18.80
2019,04,20,17,07,18.80
2019,04,20,17,08,18.80
2019,04,20,17,09,18.80
2019,04,20,17,10,18.90
2019,04,20,17,11,18.90
2019,04,20,17,12,18.90
2019,04,20,17,13,18.90
2019,04,20,17,14,18.80
2019,04,20,17,15,18.80
2019,04,20,17,16,18.90
2019,04,20,17,17,18.90
2019,04,20,17,18,18.90
2019,04,20,17,19,19.00
2019,04,20,17,20,19.00
2019,04,20,17,21,18.90
2019,04,20,17,22,18.90
2019,04,20,17,23,18.80
2019,04,20,17,24,18.80
2019,04,20,17,25,18.80
2019,04,20,17,26,18.80
2019,04,20,17,27,18.80
2019,04,20,17,28,18.70
2019,04,20,17,29,18.60
2019,04,20,17,30,18.60
2019,04,20,17,31,18.60
2019,04,20,17,32,18.50
2019,04,20,17,33,18.50
2019,04,20,17,34,18.40
2019,04,20,17,35,18.30
2019,04,20,17,36,18.40
2019,04,20,17,37,18.40
2019,04,20,17,38,18.40
2019,04,20,17,39,18.50
2019,04,20,17,40,18.60
2019,04,20,17,41,18.60
2019,04,20,17,42,18.60
2019,04,20,17,43,18.60
2019,04,20,17,44,18.70